Time,TemperatureF,DewpointF,PressureIn,WindDirection,WindDirectionDegrees,WindSpeedMPH,WindSpeedGustMPH,Humidity,HourlyPrecipIn,Conditions,Clouds,dailyrainin,SoftwareType,DateUTC
2013-10-08 00:02:00,54.7,43.9,29.87,NE,45,0.0,0.0,67,0.00,,,0.00,WUHU216HW,2013-10-08 07:02:00,
2013-10-08 00:07:00,54.4,44.0,29.87,NE,45,0.4,0.4,68,0.00,,,0.00,WUHU216HW,2013-10-08 07:07:00,
2013-10-08 00:12:00,54.2,44.3,29.87,East,90,0.4,0.7,69,0.00,,,0.00,WUHU216HW,2013-10-08 07:12:00,
2013-10-08 00:17:00,54.0,44.1,29.87,ENE,68,0.2,0.7,69,0.00,,,0.00,WUHU216HW,2013-10-08 07:17:00,
2013-10-08 00:22:00,53.8,43.9,29.87,ENE,68,0.4,0.7,69,0.00,,,0.00,WUHU216HW,2013-10-08 07:22:00,
2013-10-08 00:27:00,53.6,43.8,29.86,NE,45,0.0,0.7,69,0.00,,,0.00,WUHU216HW,2013-10-08 07:27:00,
2013-10-08 00:32:00,53.6,44.1,29.86,NE,45,0.0,0.4,70,0.00,,,0.00,WUHU216HW,2013-10-08 07:32:00,
2013-10-08 00:37:00,53.5,43.9,29.86,ENE,68,0.7,0.7,70,0.00,,,0.00,WUHU216HW,2013-10-08 07:37:00,
2013-10-08 00:42:00,53.3,44.1,29.86,ENE,68,0.2,0.7,71,0.00,,,0.00,WUHU216HW,2013-10-08 07:42:00,
2013-10-08 00:47:00,53.1,44.0,29.86,ENE,68,0.0,0.7,71,0.00,,,0.00,WUHU216HW,2013-10-08 07:47:00,
2013-10-08 00:52:00,52.9,43.8,29.86,ENE,68,0.0,0.4,71,0.00,,,0.00,WUHU216HW,2013-10-08 07:52:00,
2013-10-08 00:57:00,52.9,43.8,29.86,ENE,68,0.0,0.0,71,0.00,,,0.00,WUHU216HW,2013-10-08 07:57:00,
2013-10-08 01:02:00,52.7,43.7,29.86,East,90,0.0,0.4,71,0.00,,,0.00,WUHU216HW,2013-10-08 08:02:00,
2013-10-08 01:07:00,52.6,43.8,29.86,East,90,0.4,0.4,72,0.00,,,0.00,WUHU216HW,2013-10-08 08:07:00,
2013-10-08 01:12:00,52.2,43.1,29.86,ENE,68,0.0,0.4,71,0.00,,,0.00,WUHU216HW,2013-10-08 08:12:00,
2013-10-08 01:17:00,52.2,43.1,29.87,ENE,68,0.0,0.4,71,0.00,,,0.00,WUHU216HW,2013-10-08 08:17:00,
2013-10-08 01:22:00,52.0,43.0,29.86,ENE,68,0.0,0.4,71,0.00,,,0.00,WUHU216HW,2013-10-08 08:22:00,
2013-10-08 01:27:00,51.8,43.2,29.86,ENE,68,0.0,0.4,72,0.00,,,0.00,WUHU216HW,2013-10-08 08:27:00,
2013-10-08 01:32:00,51.7,43.0,29.86,ENE,68,0.0,0.0,72,0.00,,,0.00,WUHU216HW,2013-10-08 08:32:00,
2013-10-08 01:37:00,51.7,43.0,29.86,ENE,68,0.0,0.4,72,0.00,,,0.00,WUHU216HW,2013-10-08 08:37:00,
2013-10-08 01:42:00,51.5,42.9,29.87,ENE,68,0.4,0.4,72,0.00,,,0.00,WUHU216HW,2013-10-08 08:42:00,
2013-10-08 01:47:00,51.3,42.7,29.87,ENE,68,0.0,0.4,72,0.00,,,0.00,WUHU216HW,2013-10-08 08:47:00,
2013-10-08 01:52:00,51.1,42.5,29.87,ENE,68,0.2,0.4,72,0.00,,,0.00,WUHU216HW,2013-10-08 08:52:00,
2013-10-08 01:57:00,50.9,42.3,29.86,ENE,68,0.2,0.4,72,0.00,,,0.00,WUHU216HW,2013-10-08 08:57:00,
2013-10-08 02:02:00,50.9,42.3,29.86,ENE,68,0.0,0.2,72,0.00,,,0.00,WUHU216HW,2013-10-08 09:02:00,
2013-10-08 02:07:00,50.8,42.1,29.86,ENE,68,0.0,0.0,72,0.00,,,0.00,WUHU216HW,2013-10-08 09:07:00,
2013-10-08 02:12:00,50.8,42.1,29.87,ENE,68,0.0,0.4,72,0.00,,,0.00,WUHU216HW,2013-10-08 09:12:00,
2013-10-08 02:17:00,50.6,42.0,29.87,ENE,68,0.0,0.4,72,0.00,,,0.00,WUHU216HW,2013-10-08 09:17:00,
2013-10-08 02:22:00,50.4,42.0,29.86,ENE,68,0.0,0.0,73,0.00,,,0.00,WUHU216HW,2013-10-08 09:22:00,
2013-10-08 02:27:00,50.4,42.0,29.86,NW,315,0.0,0.4,73,0.00,,,0.00,WUHU216HW,2013-10-08 09:27:00,
2013-10-08 02:32:00,50.2,42.2,29.87,NNW,338,0.0,0.4,74,0.00,,,0.00,WUHU216HW,2013-10-08 09:32:00,
2013-10-08 02:37:00,50.2,42.2,29.86,ENE,68,0.9,0.9,74,0.00,,,0.00,WUHU216HW,2013-10-08 09:37:00,
2013-10-08 02:42:00,50.0,42.8,29.86,NE,45,0.7,1.1,76,0.00,,,0.00,WUHU216HW,2013-10-08 09:42:00,
2013-10-08 02:47:00,50.0,42.4,29.87,NE,45,0.0,1.1,75,0.00,,,0.00,WUHU216HW,2013-10-08 09:47:00,
2013-10-08 02:52:00,49.9,42.2,29.87,East,90,0.0,0.7,75,0.00,,,0.00,WUHU216HW,2013-10-08 09:52:00,
2013-10-08 02:57:00,49.9,42.2,29.86,East,90,0.0,0.4,75,0.00,,,0.00,WUHU216HW,2013-10-08 09:57:00,
2013-10-08 03:02:00,49.7,42.0,29.86,SSW,203,0.0,0.2,75,0.00,,,0.00,WUHU216HW,2013-10-08 10:02:00,
2013-10-08 03:07:00,49.5,41.9,29.86,East,90,0.9,0.9,75,0.00,,,0.00,WUHU216HW,2013-10-08 10:07:00,
2013-10-08 03:12:00,49.3,42.0,29.86,East,90,0.0,0.9,76,0.00,,,0.00,WUHU216HW,2013-10-08 10:12:00,
2013-10-08 03:17:00,49.3,42.0,29.86,NE,45,0.2,0.7,76,0.00,,,0.00,WUHU216HW,2013-10-08 10:17:00,
2013-10-08 03:22:00,49.1,41.9,29.86,ENE,68,1.1,1.1,76,0.00,,,0.00,WUHU216HW,2013-10-08 10:22:00,
2013-10-08 03:27:00,49.0,41.7,29.86,ENE,68,0.4,1.1,76,0.00,,,0.00,WUHU216HW,2013-10-08 10:27:00,
2013-10-08 03:32:00,49.0,42.0,29.85,ENE,68,0.7,1.1,77,0.00,,,0.00,WUHU216HW,2013-10-08 10:32:00,
2013-10-08 03:37:00,48.8,41.5,29.86,North,0,0.0,0.7,76,0.00,,,0.00,WUHU216HW,2013-10-08 10:37:00,
2013-10-08 03:42:00,48.6,41.3,29.86,NNE,23,0.0,0.4,76,0.00,,,0.00,WUHU216HW,2013-10-08 10:42:00,
2013-10-08 03:47:00,48.6,41.3,29.86,North,0,0.0,0.0,76,0.00,,,0.00,WUHU216HW,2013-10-08 10:47:00,
2013-10-08 03:52:00,48.4,41.1,29.85,North,0,0.0,0.0,76,0.00,,,0.00,WUHU216HW,2013-10-08 10:52:00,
2013-10-08 03:57:00,48.4,41.5,29.85,ENE,68,0.0,0.7,77,0.00,,,0.00,WUHU216HW,2013-10-08 10:57:00,
2013-10-08 04:02:00,48.2,41.3,29.85,NE,45,0.4,0.7,77,0.00,,,0.00,WUHU216HW,2013-10-08 11:02:00,
2013-10-08 04:07:00,48.1,41.1,29.85,NE,45,0.4,0.7,77,0.00,,,0.00,WUHU216HW,2013-10-08 11:07:00,
2013-10-08 04:12:00,47.9,41.0,29.85,NNE,23,0.2,0.7,77,0.00,,,0.00,WUHU216HW,2013-10-08 11:12:00,
2013-10-08 04:17:00,47.9,41.0,29.86,NNE,23,0.0,0.7,77,0.00,,,0.00,WUHU216HW,2013-10-08 11:17:00,
2013-10-08 04:22:00,47.7,41.1,29.86,NNE,23,0.0,0.0,78,0.00,,,0.00,WUHU216HW,2013-10-08 11:22:00,
2013-10-08 04:27:00,47.5,41.0,29.86,ENE,68,0.4,0.4,78,0.00,,,0.00,WUHU216HW,2013-10-08 11:27:00,
2013-10-08 04:32:00,47.5,41.0,29.86,East,90,0.2,0.7,78,0.00,,,0.00,WUHU216HW,2013-10-08 11:32:00,
2013-10-08 04:37:00,47.3,40.8,29.86,ENE,68,0.4,0.9,78,0.00,,,0.00,WUHU216HW,2013-10-08 11:37:00,
2013-10-08 04:42:00,47.2,40.7,29.86,East,90,0.4,1.1,78,0.00,,,0.00,WUHU216HW,2013-10-08 11:42:00,
2013-10-08 04:47:00,47.2,40.7,29.86,East,90,0.0,1.1,78,0.00,,,0.00,WUHU216HW,2013-10-08 11:47:00,
2013-10-08 04:52:00,47.0,40.5,29.86,East,90,0.0,0.9,78,0.00,,,0.00,WUHU216HW,2013-10-08 11:52:00,
2013-10-08 04:57:00,46.8,40.0,29.86,East,90,0.0,0.4,77,0.00,,,0.00,WUHU216HW,2013-10-08 11:57:00,
2013-10-08 05:02:00,46.8,40.0,29.86,East,90,0.0,0.7,77,0.00,,,0.00,WUHU216HW,2013-10-08 12:02:00,
2013-10-08 05:07:00,46.6,39.8,29.86,East,90,0.0,0.7,77,0.00,,,0.00,WUHU216HW,2013-10-08 12:07:00,
2013-10-08 05:12:00,46.4,39.7,29.86,East,90,0.4,0.4,77,0.00,,,0.00,WUHU216HW,2013-10-08 12:12:00,
2013-10-08 05:17:00,46.3,39.5,29.86,ENE,68,0.4,0.4,77,0.00,,,0.00,WUHU216HW,2013-10-08 12:17:00,
2013-10-08 05:22:00,46.3,39.8,29.86,NE,45,0.4,0.4,78,0.00,,,0.00,WUHU216HW,2013-10-08 12:22:00,
2013-10-08 05:27:00,46.3,39.5,29.86,NNW,338,0.0,0.4,77,0.00,,,0.00,WUHU216HW,2013-10-08 12:27:00,
2013-10-08 05:32:00,46.1,39.6,29.86,NNW,338,0.0,0.4,78,0.00,,,0.00,WUHU216HW,2013-10-08 12:32:00,
2013-10-08 05:37:00,46.1,39.6,29.86,NW,315,0.0,0.0,78,0.00,,,0.00,WUHU216HW,2013-10-08 12:37:00,
2013-10-08 05:42:00,46.1,39.6,29.86,NW,315,0.0,0.0,78,0.00,,,0.00,WUHU216HW,2013-10-08 12:42:00,
2013-10-08 05:47:00,45.9,39.4,29.86,NW,315,0.0,0.0,78,0.00,,,0.00,WUHU216HW,2013-10-08 12:47:00,
2013-10-08 05:52:00,45.9,39.8,29.86,NE,45,0.2,0.7,79,0.00,,,0.00,WUHU216HW,2013-10-08 12:52:00,
2013-10-08 05:57:00,45.7,39.6,29.86,ENE,68,0.0,0.7,79,0.00,,,0.00,WUHU216HW,2013-10-08 12:57:00,
2013-10-08 06:02:00,45.7,39.6,29.86,ENE,68,0.0,0.4,79,0.00,,,0.00,WUHU216HW,2013-10-08 13:02:00,
2013-10-08 06:07:00,45.5,39.4,29.86,ENE,68,0.0,0.2,79,0.00,,,0.00,WUHU216HW,2013-10-08 13:07:00,
2013-10-08 06:12:00,45.5,39.4,29.86,ENE,68,0.0,0.4,79,0.00,,,0.00,WUHU216HW,2013-10-08 13:12:00,
2013-10-08 06:17:00,45.4,39.2,29.86,NE,45,0.2,0.4,79,0.00,,,0.00,WUHU216HW,2013-10-08 13:17:00,
2013-10-08 06:22:00,45.4,39.2,29.86,East,90,0.9,0.9,79,0.00,,,0.00,WUHU216HW,2013-10-08 13:22:00,
2013-10-08 06:27:00,45.4,39.6,29.86,ENE,68,0.4,0.9,80,0.00,,,0.00,WUHU216HW,2013-10-08 13:27:00,
2013-10-08 06:32:00,45.2,39.1,29.87,ENE,68,0.0,0.9,79,0.00,,,0.00,WUHU216HW,2013-10-08 13:32:00,
2013-10-08 06:37:00,45.0,39.2,29.86,ENE,68,0.0,0.4,80,0.00,,,0.00,WUHU216HW,2013-10-08 13:37:00,
2013-10-08 06:42:00,45.0,38.9,29.87,East,90,0.2,0.4,79,0.00,,,0.00,WUHU216HW,2013-10-08 13:42:00,
2013-10-08 06:47:00,45.0,39.2,29.86,East,90,0.0,0.4,80,0.00,,,0.00,WUHU216HW,2013-10-08 13:47:00,
2013-10-08 06:52:00,45.0,39.2,29.87,East,90,0.0,0.4,80,0.00,,,0.00,WUHU216HW,2013-10-08 13:52:00,
2013-10-08 06:57:00,44.8,39.1,29.87,East,90,0.4,0.4,80,0.00,,,0.00,WUHU216HW,2013-10-08 13:57:00,
2013-10-08 07:02:00,44.6,38.9,29.87,ENE,68,0.0,0.4,80,0.00,,,0.00,WUHU216HW,2013-10-08 14:02:00,
2013-10-08 07:07:00,44.6,38.9,29.87,NNW,338,0.0,0.4,80,0.00,,,0.00,WUHU216HW,2013-10-08 14:07:00,
2013-10-08 07:12:00,44.5,38.7,29.87,NNW,338,0.0,0.2,80,0.00,,,0.00,WUHU216HW,2013-10-08 14:12:00,
2013-10-08 07:17:00,44.5,38.7,29.87,East,90,0.4,0.9,80,0.00,,,0.00,WUHU216HW,2013-10-08 14:17:00,
2013-10-08 07:22:00,44.5,39.0,29.87,East,90,0.4,0.9,81,0.00,,,0.00,WUHU216HW,2013-10-08 14:22:00,
2013-10-08 07:27:00,44.5,39.0,29.87,NNE,23,0.0,0.7,81,0.00,,,0.00,WUHU216HW,2013-10-08 14:27:00,
2013-10-08 07:32:00,44.5,39.0,29.87,East,90,0.9,0.9,81,0.00,,,0.00,WUHU216HW,2013-10-08 14:32:00,
2013-10-08 07:37:00,44.5,39.0,29.87,East,90,0.9,1.1,81,0.00,,,0.00,WUHU216HW,2013-10-08 14:37:00,
2013-10-08 07:42:00,44.5,39.0,29.87,ENE,68,0.0,1.1,81,0.00,,,0.00,WUHU216HW,2013-10-08 14:42:00,
2013-10-08 07:47:00,44.6,39.2,29.87,East,90,0.4,1.1,81,0.00,,,0.00,WUHU216HW,2013-10-08 14:47:00,
2013-10-08 07:52:00,44.6,39.2,29.87,East,90,0.0,1.3,81,0.00,,,0.00,WUHU216HW,2013-10-08 14:52:00,
2013-10-08 07:57:00,44.8,39.7,29.87,ENE,68,0.4,1.3,82,0.00,,,0.00,WUHU216HW,2013-10-08 14:57:00,
2013-10-08 08:02:00,45.0,39.9,29.87,East,90,0.0,0.4,82,0.00,,,0.00,WUHU216HW,2013-10-08 15:02:00,
2013-10-08 08:07:00,45.4,40.2,29.87,East,90,0.0,1.6,82,0.00,,,0.00,WUHU216HW,2013-10-08 15:07:00,
2013-10-08 08:12:00,45.9,40.8,29.87,East,90,0.9,1.6,82,0.00,,,0.00,WUHU216HW,2013-10-08 15:12:00,
2013-10-08 08:17:00,46.3,41.1,29.87,East,90,0.0,0.9,82,0.00,,,0.00,WUHU216HW,2013-10-08 15:17:00,
2013-10-08 08:22:00,46.8,42.0,29.87,East,90,0.0,0.7,83,0.00,,,0.00,WUHU216HW,2013-10-08 15:22:00,
2013-10-08 08:27:00,47.3,41.8,29.87,East,90,0.4,0.4,81,0.00,,,0.00,WUHU216HW,2013-10-08 15:27:00,
2013-10-08 08:32:00,47.9,42.3,29.87,SSE,158,0.7,0.7,81,0.00,,,0.00,WUHU216HW,2013-10-08 15:32:00,
2013-10-08 08:37:00,49.0,43.7,29.87,East,90,0.2,0.7,82,0.00,,,0.00,WUHU216HW,2013-10-08 15:37:00,
2013-10-08 08:42:00,51.5,45.8,29.87,East,90,1.1,1.1,81,0.00,,,0.00,WUHU216HW,2013-10-08 15:42:00,
2013-10-08 08:47:00,53.6,46.6,29.87,ESE,113,1.3,1.3,77,0.00,,,0.00,WUHU216HW,2013-10-08 15:47:00,
2013-10-08 08:52:00,54.4,46.3,29.87,SSW,203,0.4,1.3,74,0.00,,,0.00,WUHU216HW,2013-10-08 15:52:00,
2013-10-08 08:57:00,55.6,46.5,29.87,SE,135,0.9,0.9,71,0.00,,,0.00,WUHU216HW,2013-10-08 15:57:00,
2013-10-08 09:02:00,58.1,47.3,29.87,SE,135,1.1,1.3,67,0.00,,,0.00,WUHU216HW,2013-10-08 16:02:00,
2013-10-08 09:07:00,60.1,46.3,29.87,SE,135,1.3,1.3,60,0.00,,,0.00,WUHU216HW,2013-10-08 16:07:00,
2013-10-08 09:12:00,61.6,47.2,29.87,SE,135,0.9,1.6,59,0.00,,,0.00,WUHU216HW,2013-10-08 16:12:00,
2013-10-08 09:17:00,63.7,48.2,29.87,ESE,113,0.7,1.6,57,0.00,,,0.00,WUHU216HW,2013-10-08 16:17:00,
2013-10-08 09:22:00,65.7,47.6,29.87,SSW,203,0.7,1.6,52,0.00,,,0.00,WUHU216HW,2013-10-08 16:22:00,
2013-10-08 09:27:00,66.6,48.0,29.87,SSE,158,0.0,1.6,51,0.00,,,0.00,WUHU216HW,2013-10-08 16:27:00,
2013-10-08 09:32:00,68.9,48.4,29.87,NNE,23,0.4,1.3,48,0.00,,,0.00,WUHU216HW,2013-10-08 16:32:00,
2013-10-08 09:37:00,71.1,49.1,29.87,NNE,23,0.0,1.3,46,0.00,,,0.00,WUHU216HW,2013-10-08 16:37:00,
2013-10-08 09:42:00,71.6,49.1,29.87,East,90,1.1,1.8,45,0.00,,,0.00,WUHU216HW,2013-10-08 16:42:00,
2013-10-08 09:47:00,70.9,46.6,29.87,SE,135,2.5,2.5,42,0.00,,,0.00,WUHU216HW,2013-10-08 16:47:00,
2013-10-08 09:52:00,68.8,45.3,29.87,SSE,158,3.4,3.4,43,0.00,,,0.00,WUHU216HW,2013-10-08 16:52:00,
2013-10-08 09:57:00,67.3,44.6,29.87,SSW,203,1.8,3.4,44,0.00,,,0.00,WUHU216HW,2013-10-08 16:57:00,
2013-10-08 10:02:00,67.1,45.0,29.87,SSE,158,2.0,2.5,45,0.00,,,0.00,WUHU216HW,2013-10-08 17:02:00,
2013-10-08 10:07:00,67.1,44.4,29.87,South,180,0.2,2.5,44,0.00,,,0.00,WUHU216HW,2013-10-08 17:07:00,
2013-10-08 10:12:00,67.3,44.6,29.87,SSE,158,2.5,3.4,44,0.00,,,0.00,WUHU216HW,2013-10-08 17:12:00,
2013-10-08 10:17:00,67.3,44.6,29.87,SE,135,0.4,3.4,44,0.00,,,0.00,WUHU216HW,2013-10-08 17:17:00,
2013-10-08 10:22:00,67.3,44.6,29.87,WSW,248,0.4,2.2,44,0.00,,,0.00,WUHU216HW,2013-10-08 17:22:00,
2013-10-08 10:27:00,67.7,44.9,29.87,SSE,158,0.9,2.2,44,0.00,,,0.00,WUHU216HW,2013-10-08 17:27:00,
2013-10-08 10:32:00,68.0,45.2,29.87,SSW,203,0.2,2.0,44,0.00,,,0.00,WUHU216HW,2013-10-08 17:32:00,
2013-10-08 10:37:00,68.6,45.7,29.87,WSW,248,0.2,2.0,44,0.00,,,0.00,WUHU216HW,2013-10-08 17:37:00,
2013-10-08 10:42:00,68.9,45.5,29.87,East,90,0.2,1.6,43,0.00,,,0.00,WUHU216HW,2013-10-08 17:42:00,
2013-10-08 10:47:00,69.3,45.7,29.87,SSW,203,0.7,2.5,43,0.00,,,0.00,WUHU216HW,2013-10-08 17:47:00,
2013-10-08 10:52:00,69.5,44.7,29.86,West,270,2.0,3.4,41,0.00,,,0.00,WUHU216HW,2013-10-08 17:52:00,
2013-10-08 10:57:00,70.2,45.4,29.86,WNW,293,1.6,3.4,41,0.00,,,0.00,WUHU216HW,2013-10-08 17:57:00,
2013-10-08 11:02:00,70.6,45.7,29.86,WNW,293,0.4,1.8,41,0.00,,,0.00,WUHU216HW,2013-10-08 18:02:00,
2013-10-08 11:07:00,70.7,45.3,29.86,WNW,293,1.8,1.8,40,0.00,,,0.00,WUHU216HW,2013-10-08 18:07:00,
2013-10-08 11:12:00,70.9,44.7,29.86,NNW,338,0.4,3.4,39,0.00,,,0.00,WUHU216HW,2013-10-08 18:12:00,
2013-10-08 11:17:00,71.5,45.9,29.86,North,0,0.2,3.4,40,0.00,,,0.00,WUHU216HW,2013-10-08 18:17:00,
2013-10-08 11:22:00,71.6,45.4,29.85,WNW,293,2.5,2.7,39,0.00,,,0.00,WUHU216HW,2013-10-08 18:22:00,
2013-10-08 11:27:00,71.6,45.4,29.85,NNW,338,0.4,2.5,39,0.00,,,0.00,WUHU216HW,2013-10-08 18:27:00,
2013-10-08 11:32:00,71.8,44.7,29.85,West,270,2.5,3.8,38,0.00,,,0.00,WUHU216HW,2013-10-08 18:32:00,
2013-10-08 11:37:00,71.8,45.6,29.85,West,270,1.1,3.8,39,0.00,,,0.00,WUHU216HW,2013-10-08 18:37:00,
2013-10-08 11:42:00,72.2,46.5,29.85,North,0,0.7,2.7,40,0.00,,,0.00,WUHU216HW,2013-10-08 18:42:00,
2013-10-08 11:47:00,72.5,45.4,29.85,West,270,2.5,5.4,38,0.00,,,0.00,WUHU216HW,2013-10-08 18:47:00,
2013-10-08 11:52:00,72.7,44.8,29.85,North,0,2.7,5.4,37,0.00,,,0.00,WUHU216HW,2013-10-08 18:52:00,
2013-10-08 11:57:00,72.5,44.6,29.85,NW,315,0.2,3.8,37,0.00,,,0.00,WUHU216HW,2013-10-08 18:57:00,
2013-10-08 12:02:00,72.4,42.3,29.84,NNW,338,1.6,2.9,34,0.00,,,0.00,WUHU216HW,2013-10-08 19:02:00,
2013-10-08 12:07:00,72.5,43.1,29.84,NNW,338,2.2,4.0,35,0.00,,,0.00,WUHU216HW,2013-10-08 19:07:00,
2013-10-08 12:12:00,72.9,42.8,29.84,West,270,3.4,4.0,34,0.00,,,0.00,WUHU216HW,2013-10-08 19:12:00,
2013-10-08 12:17:00,73.4,43.9,29.84,NNE,23,2.2,5.4,35,0.00,,,0.00,WUHU216HW,2013-10-08 19:17:00,
2013-10-08 12:22:00,73.8,44.3,29.84,West,270,5.8,5.8,35,0.00,,,0.00,WUHU216HW,2013-10-08 19:22:00,
2013-10-08 12:27:00,74.0,44.4,29.83,NNW,338,1.8,5.8,35,0.00,,,0.00,WUHU216HW,2013-10-08 19:27:00,
2013-10-08 12:32:00,74.0,43.7,29.83,NW,315,1.1,5.8,34,0.00,,,0.00,WUHU216HW,2013-10-08 19:32:00,
2013-10-08 12:37:00,74.2,43.8,29.83,NW,315,3.6,3.8,34,0.00,,,0.00,WUHU216HW,2013-10-08 19:37:00,
2013-10-08 12:42:00,74.2,43.0,29.83,WNW,293,1.3,3.8,33,0.00,,,0.00,WUHU216HW,2013-10-08 19:42:00,
2013-10-08 12:47:00,74.3,44.0,29.83,NW,315,2.9,3.4,34,0.00,,,0.00,WUHU216HW,2013-10-08 19:47:00,
2013-10-08 12:52:00,74.3,44.0,29.82,WNW,293,0.9,3.4,34,0.00,,,0.00,WUHU216HW,2013-10-08 19:52:00,
2013-10-08 12:57:00,74.3,44.0,29.82,NW,315,0.4,3.4,34,0.00,,,0.00,WUHU216HW,2013-10-08 19:57:00,
2013-10-08 13:02:00,74.3,44.0,29.82,West,270,1.1,2.0,34,0.00,,,0.00,WUHU216HW,2013-10-08 20:02:00,
2013-10-08 13:07:00,74.5,43.4,29.82,NW,315,1.1,2.5,33,0.00,,,0.00,WUHU216HW,2013-10-08 20:07:00,
2013-10-08 13:12:00,74.7,44.3,29.82,NNE,23,1.8,3.4,34,0.00,,,0.00,WUHU216HW,2013-10-08 20:12:00,
2013-10-08 13:17:00,74.9,44.5,29.81,NNE,23,1.8,3.4,34,0.00,,,0.00,WUHU216HW,2013-10-08 20:17:00,
2013-10-08 13:22:00,74.9,44.5,29.81,NW,315,0.9,2.5,34,0.00,,,0.00,WUHU216HW,2013-10-08 20:22:00,
2013-10-08 13:27:00,75.2,47.1,29.80,WNW,293,2.0,5.6,37,0.00,,,0.00,WUHU216HW,2013-10-08 20:27:00,
2013-10-08 13:32:00,75.2,45.5,29.80,West,270,3.6,5.6,35,0.00,,,0.00,WUHU216HW,2013-10-08 20:32:00,
2013-10-08 13:37:00,75.1,46.9,29.80,WSW,248,4.7,4.7,37,0.00,,,0.00,WUHU216HW,2013-10-08 20:37:00,
2013-10-08 13:42:00,74.9,48.2,29.80,West,270,6.5,6.5,39,0.00,,,0.00,WUHU216HW,2013-10-08 20:42:00,
2013-10-08 13:47:00,75.1,48.4,29.79,WNW,293,2.5,6.5,39,0.00,,,0.00,WUHU216HW,2013-10-08 20:47:00,
2013-10-08 13:52:00,75.2,48.6,29.79,WSW,248,0.4,4.5,39,0.00,,,0.00,WUHU216HW,2013-10-08 20:52:00,
2013-10-08 13:57:00,75.6,48.9,29.79,NNW,338,2.0,4.3,39,0.00,,,0.00,WUHU216HW,2013-10-08 20:57:00,
2013-10-08 14:02:00,75.4,48.0,29.79,West,270,7.4,7.6,38,0.00,,,0.00,WUHU216HW,2013-10-08 21:02:00,
2013-10-08 14:07:00,75.4,48.0,29.79,SW,225,2.2,8.5,38,0.00,,,0.00,WUHU216HW,2013-10-08 21:07:00,
2013-10-08 14:12:00,75.6,48.9,29.78,West,270,0.7,8.5,39,0.00,,,0.00,WUHU216HW,2013-10-08 21:12:00,
2013-10-08 14:17:00,76.0,48.4,29.78,WSW,248,5.8,5.8,38,0.00,,,0.00,WUHU216HW,2013-10-08 21:17:00,
2013-10-08 14:22:00,76.0,48.4,29.78,SSW,203,0.7,5.8,38,0.00,,,0.00,WUHU216HW,2013-10-08 21:22:00,
2013-10-08 14:27:00,76.1,47.9,29.78,West,270,4.5,4.5,37,0.00,,,0.00,WUHU216HW,2013-10-08 21:27:00,
2013-10-08 14:32:00,76.1,47.9,29.77,WSW,248,1.6,4.5,37,0.00,,,0.00,WUHU216HW,2013-10-08 21:32:00,
2013-10-08 14:37:00,76.1,48.6,29.77,West,270,6.9,6.9,38,0.00,,,0.00,WUHU216HW,2013-10-08 21:37:00,
2013-10-08 14:42:00,76.5,48.2,29.77,WSW,248,3.6,7.8,37,0.00,,,0.00,WUHU216HW,2013-10-08 21:42:00,
2013-10-08 14:47:00,76.9,47.0,29.77,SE,135,0.4,7.8,35,0.00,,,0.00,WUHU216HW,2013-10-08 21:47:00,
2013-10-08 14:52:00,76.9,46.3,29.76,West,270,1.3,3.6,34,0.00,,,0.00,WUHU216HW,2013-10-08 21:52:00,
2013-10-08 14:57:00,76.7,46.8,29.76,WNW,293,0.7,2.7,35,0.00,,,0.00,WUHU216HW,2013-10-08 21:57:00,
2013-10-08 15:02:00,77.0,47.2,29.76,WSW,248,1.3,4.7,35,0.00,,,0.00,WUHU216HW,2013-10-08 22:02:00,
2013-10-08 15:07:00,77.4,46.0,29.76,WNW,293,4.7,4.7,33,0.00,,,0.00,WUHU216HW,2013-10-08 22:07:00,
2013-10-08 15:12:00,77.6,46.9,29.75,WNW,293,6.5,6.5,34,0.00,,,0.00,WUHU216HW,2013-10-08 22:12:00,
2013-10-08 15:17:00,77.6,47.6,29.75,WSW,248,4.9,6.5,35,0.00,,,0.00,WUHU216HW,2013-10-08 22:17:00,
2013-10-08 15:22:00,77.6,47.6,29.75,WNW,293,6.3,6.3,35,0.00,,,0.00,WUHU216HW,2013-10-08 22:22:00,
2013-10-08 15:27:00,77.4,47.4,29.75,NW,315,1.8,6.3,35,0.00,,,0.00,WUHU216HW,2013-10-08 22:27:00,
2013-10-08 15:32:00,77.2,47.4,29.75,West,270,4.5,4.5,35,0.00,,,0.00,WUHU216HW,2013-10-08 22:32:00,
2013-10-08 15:37:00,77.0,47.2,29.75,WSW,248,6.5,6.5,35,0.00,,,0.00,WUHU216HW,2013-10-08 22:37:00,
2013-10-08 15:42:00,76.9,48.5,29.75,West,270,5.1,6.5,37,0.00,,,0.00,WUHU216HW,2013-10-08 22:42:00,
2013-10-08 15:47:00,77.0,48.7,29.75,WNW,293,2.7,6.5,37,0.00,,,0.00,WUHU216HW,2013-10-08 22:47:00,
2013-10-08 15:52:00,76.7,48.3,29.75,West,270,6.3,6.5,37,0.00,,,0.00,WUHU216HW,2013-10-08 22:52:00,
2013-10-08 15:57:00,76.5,47.4,29.75,West,270,4.0,6.3,36,0.00,,,0.00,WUHU216HW,2013-10-08 22:57:00,
2013-10-08 16:02:00,76.3,48.1,29.75,West,270,6.0,6.9,37,0.00,,,0.00,WUHU216HW,2013-10-08 23:02:00,
2013-10-08 16:07:00,76.0,47.0,29.75,SW,225,5.1,7.6,36,0.00,,,0.00,WUHU216HW,2013-10-08 23:07:00,
2013-10-08 16:12:00,76.0,47.0,29.75,SSE,158,2.7,7.6,36,0.00,,,0.00,WUHU216HW,2013-10-08 23:12:00,
2013-10-08 16:17:00,75.8,46.8,29.75,WSW,248,2.5,6.9,36,0.00,,,0.00,WUHU216HW,2013-10-08 23:17:00,
2013-10-08 16:22:00,75.8,46.0,29.75,West,270,5.1,6.9,35,0.00,,,0.00,WUHU216HW,2013-10-08 23:22:00,
2013-10-08 16:27:00,75.4,45.7,29.74,WNW,293,4.3,8.7,35,0.00,,,0.00,WUHU216HW,2013-10-08 23:27:00,
2013-10-08 16:32:00,75.2,47.1,29.74,West,270,3.4,8.7,37,0.00,,,0.00,WUHU216HW,2013-10-08 23:32:00,
2013-10-08 16:37:00,75.1,46.9,29.74,West,270,2.5,6.3,37,0.00,,,0.00,WUHU216HW,2013-10-08 23:37:00,
2013-10-08 16:42:00,74.9,46.0,29.74,NNW,338,4.9,6.3,36,0.00,,,0.00,WUHU216HW,2013-10-08 23:42:00,
2013-10-08 16:47:00,74.5,43.4,29.74,West,270,5.4,5.6,33,0.00,,,0.00,WUHU216HW,2013-10-08 23:47:00,
2013-10-08 16:52:00,74.2,43.8,29.73,West,270,3.8,8.5,34,0.00,,,0.00,WUHU216HW,2013-10-08 23:52:00,
2013-10-08 16:57:00,74.0,43.7,29.73,West,270,4.0,8.5,34,0.00,,,0.00,WUHU216HW,2013-10-08 23:57:00,
2013-10-08 17:02:00,73.8,43.5,29.73,WSW,248,6.0,7.2,34,0.00,,,0.00,WUHU216HW,2013-10-09 00:02:00,
2013-10-08 17:07:00,73.4,43.2,29.73,WSW,248,6.0,6.3,34,0.00,,,0.00,WUHU216HW,2013-10-09 00:07:00,
2013-10-08 17:12:00,73.1,42.8,29.73,WSW,248,4.7,7.8,34,0.00,,,0.00,WUHU216HW,2013-10-09 00:12:00,
2013-10-08 17:17:00,72.7,43.3,29.73,WSW,248,6.9,7.8,35,0.00,,,0.00,WUHU216HW,2013-10-09 00:17:00,
2013-10-08 17:22:00,72.5,43.1,29.73,West,270,4.7,7.6,35,0.00,,,0.00,WUHU216HW,2013-10-09 00:22:00,
2013-10-08 17:27:00,72.2,43.6,29.73,WSW,248,6.0,7.6,36,0.00,,,0.00,WUHU216HW,2013-10-09 00:27:00,
2013-10-08 17:32:00,71.6,43.1,29.72,SW,225,5.8,7.6,36,0.00,,,0.00,WUHU216HW,2013-10-09 00:32:00,
2013-10-08 17:37:00,71.3,43.6,29.72,WSW,248,4.7,5.8,37,0.00,,,0.00,WUHU216HW,2013-10-09 00:37:00,
2013-10-08 17:42:00,71.1,43.4,29.72,WNW,293,2.7,5.8,37,0.00,,,0.00,WUHU216HW,2013-10-09 00:42:00,
2013-10-08 17:47:00,70.7,43.0,29.72,West,270,3.4,5.4,37,0.00,,,0.00,WUHU216HW,2013-10-09 00:47:00,
2013-10-08 17:52:00,70.2,43.3,29.72,WNW,293,3.4,5.4,38,0.00,,,0.00,WUHU216HW,2013-10-09 00:52:00,
2013-10-08 17:57:00,69.7,43.6,29.72,NNW,338,2.7,5.4,39,0.00,,,0.00,WUHU216HW,2013-10-09 00:57:00,
2013-10-08 18:02:00,69.3,43.2,29.72,West,270,2.5,5.4,39,0.00,,,0.00,WUHU216HW,2013-10-09 01:02:00,
2013-10-08 18:07:00,68.8,43.5,29.72,West,270,2.0,5.6,40,0.00,,,0.00,WUHU216HW,2013-10-09 01:07:00,
2013-10-08 18:12:00,68.4,43.2,29.71,West,270,1.3,5.6,40,0.00,,,0.00,WUHU216HW,2013-10-09 01:12:00,
2013-10-08 18:17:00,67.9,42.7,29.71,NNW,338,0.9,4.5,40,0.00,,,0.00,WUHU216HW,2013-10-09 01:17:00,
2013-10-08 18:22:00,67.3,42.2,29.71,NW,315,0.4,2.0,40,0.00,,,0.00,WUHU216HW,2013-10-09 01:22:00,
2013-10-08 18:27:00,67.0,42.5,29.71,NNW,338,1.1,1.8,41,0.00,,,0.00,WUHU216HW,2013-10-09 01:27:00,
2013-10-08 18:32:00,66.4,41.9,29.71,West,270,1.1,1.6,41,0.00,,,0.00,WUHU216HW,2013-10-09 01:32:00,
2013-10-08 18:37:00,66.1,42.9,29.71,WNW,293,0.4,2.5,43,0.00,,,0.00,WUHU216HW,2013-10-09 01:37:00,
2013-10-08 18:42:00,65.5,42.9,29.71,WNW,293,1.3,2.9,44,0.00,,,0.00,WUHU216HW,2013-10-09 01:42:00,
2013-10-08 18:47:00,65.2,43.2,29.71,NW,315,1.8,2.9,45,0.00,,,0.00,WUHU216HW,2013-10-09 01:47:00,
2013-10-08 18:52:00,64.6,43.8,29.71,WNW,293,1.8,2.7,47,0.00,,,0.00,WUHU216HW,2013-10-09 01:52:00,
2013-10-08 18:57:00,64.3,43.5,29.71,NW,315,3.1,4.9,47,0.00,,,0.00,WUHU216HW,2013-10-09 01:57:00,
2013-10-08 19:02:00,63.9,43.1,29.71,WNW,293,3.4,4.9,47,0.00,,,0.00,WUHU216HW,2013-10-09 02:02:00,
2013-10-08 19:07:00,63.5,44.0,29.71,West,270,2.2,5.1,49,0.00,,,0.00,WUHU216HW,2013-10-09 02:07:00,
2013-10-08 19:12:00,63.0,44.1,29.71,West,270,3.6,5.1,50,0.00,,,0.00,WUHU216HW,2013-10-09 02:12:00,
2013-10-08 19:17:00,62.6,44.2,29.71,West,270,0.9,4.5,51,0.00,,,0.00,WUHU216HW,2013-10-09 02:17:00,
2013-10-08 19:22:00,62.3,44.9,29.71,West,270,2.2,4.5,53,0.00,,,0.00,WUHU216HW,2013-10-09 02:22:00,
2013-10-08 19:27:00,61.9,44.6,29.71,SW,225,4.3,4.5,53,0.00,,,0.00,WUHU216HW,2013-10-09 02:27:00,
2013-10-08 19:32:00,61.6,44.2,29.71,WNW,293,3.1,4.3,53,0.00,,,0.00,WUHU216HW,2013-10-09 02:32:00,
2013-10-08 19:37:00,61.4,43.6,29.71,North,0,0.0,3.1,52,0.00,,,0.00,WUHU216HW,2013-10-09 02:37:00,
2013-10-08 19:42:00,61.0,43.3,29.71,NNW,338,1.1,1.3,52,0.00,,,0.00,WUHU216HW,2013-10-09 02:42:00,
2013-10-08 19:47:00,60.7,43.9,29.71,WNW,293,0.0,1.1,54,0.00,,,0.00,WUHU216HW,2013-10-09 02:47:00,
2013-10-08 19:52:00,60.5,43.8,29.71,NNW,338,0.0,0.7,54,0.00,,,0.00,WUHU216HW,2013-10-09 02:52:00,
2013-10-08 19:57:00,60.1,44.4,29.71,North,0,0.2,1.1,56,0.00,,,0.00,WUHU216HW,2013-10-09 02:57:00,
2013-10-08 20:02:00,59.9,45.1,29.71,North,0,0.4,1.6,58,0.00,,,0.00,WUHU216HW,2013-10-09 03:02:00,
2013-10-08 20:07:00,59.4,44.1,29.71,NNE,23,0.4,1.8,57,0.00,,,0.00,WUHU216HW,2013-10-09 03:07:00,
2013-10-08 20:12:00,59.2,45.4,29.71,NNE,23,0.9,1.8,60,0.00,,,0.00,WUHU216HW,2013-10-09 03:12:00,
2013-10-08 20:17:00,58.9,45.0,29.71,NNE,23,0.7,2.0,60,0.00,,,0.00,WUHU216HW,2013-10-09 03:17:00,
2013-10-08 20:22:00,58.7,44.8,29.71,NNE,23,0.2,2.0,60,0.00,,,0.00,WUHU216HW,2013-10-09 03:22:00,
2013-10-08 20:27:00,58.3,44.9,29.72,East,90,0.4,1.1,61,0.00,,,0.00,WUHU216HW,2013-10-09 03:27:00,
2013-10-08 20:32:00,58.0,45.5,29.71,ENE,68,1.1,1.1,63,0.00,,,0.00,WUHU216HW,2013-10-09 03:32:00,
2013-10-08 20:37:00,57.8,45.3,29.72,ENE,68,1.1,1.1,63,0.00,,,0.00,WUHU216HW,2013-10-09 03:37:00,
2013-10-08 20:42:00,57.6,45.5,29.71,ESE,113,0.4,1.1,64,0.00,,,0.00,WUHU216HW,2013-10-09 03:42:00,
2013-10-08 20:47:00,57.2,44.4,29.71,NNE,23,0.7,0.9,62,0.00,,,0.00,WUHU216HW,2013-10-09 03:47:00,
2013-10-08 20:52:00,56.9,44.8,29.71,SE,135,0.4,0.9,64,0.00,,,0.00,WUHU216HW,2013-10-09 03:52:00,
2013-10-08 20:57:00,56.7,44.7,29.71,NNE,23,0.4,1.1,64,0.00,,,0.00,WUHU216HW,2013-10-09 03:57:00,
2013-10-08 21:01:00,56.5,44.5,29.71,NNE,23,0.9,1.1,64,0.00,,,0.00,WUHU216HW,2013-10-09 04:01:00,
2013-10-08 21:06:00,56.2,44.1,29.71,NNE,23,2.0,2.0,64,0.00,,,0.00,WUHU216HW,2013-10-09 04:06:00,
2013-10-08 21:11:00,56.0,44.4,29.71,NE,45,0.7,2.0,65,0.00,,,0.00,WUHU216HW,2013-10-09 04:11:00,
2013-10-08 21:16:00,55.6,44.0,29.71,NNE,23,2.7,2.7,65,0.00,,,0.00,WUHU216HW,2013-10-09 04:16:00,
2013-10-08 21:21:00,55.4,44.3,29.72,NNE,23,0.9,2.7,66,0.00,,,0.00,WUHU216HW,2013-10-09 04:21:00,
2013-10-08 21:26:00,55.3,44.1,29.71,NNE,23,0.4,2.0,66,0.00,,,0.00,WUHU216HW,2013-10-09 04:26:00,
2013-10-08 21:31:00,55.1,43.9,29.71,NNE,23,0.4,1.8,66,0.00,,,0.00,WUHU216HW,2013-10-09 04:31:00,
2013-10-08 21:36:00,54.9,44.1,29.71,NNE,23,0.4,1.8,67,0.00,,,0.00,WUHU216HW,2013-10-09 04:36:00,
2013-10-08 21:41:00,54.7,43.9,29.71,North,0,0.2,0.7,67,0.00,,,0.00,WUHU216HW,2013-10-09 04:41:00,
2013-10-08 21:46:00,54.4,44.0,29.71,North,0,0.4,0.7,68,0.00,,,0.00,WUHU216HW,2013-10-09 04:46:00,
2013-10-08 21:51:00,54.4,44.0,29.71,NE,45,0.4,0.9,68,0.00,,,0.00,WUHU216HW,2013-10-09 04:51:00,
2013-10-08 21:56:00,54.2,44.3,29.71,North,0,0.0,1.3,69,0.00,,,0.00,WUHU216HW,2013-10-09 04:56:00,
2013-10-08 22:01:00,54.0,44.5,29.71,NNE,23,0.4,2.0,70,0.00,,,0.00,WUHU216HW,2013-10-09 05:01:00,
2013-10-08 22:06:00,53.6,44.1,29.71,North,0,0.0,2.0,70,0.00,,,0.00,WUHU216HW,2013-10-09 05:06:00,
2013-10-08 22:11:00,53.6,44.8,29.71,North,0,0.2,1.1,72,0.00,,,0.00,WUHU216HW,2013-10-09 05:11:00,
2013-10-08 22:16:00,53.6,45.2,29.71,North,0,0.0,0.2,73,0.00,,,0.00,WUHU216HW,2013-10-09 05:16:00,
2013-10-08 22:21:00,53.5,45.0,29.71,West,270,0.4,0.7,73,0.00,,,0.00,WUHU216HW,2013-10-09 05:21:00,
2013-10-08 22:26:00,53.3,44.8,29.71,WNW,293,0.2,0.9,73,0.00,,,0.00,WUHU216HW,2013-10-09 05:26:00,
2013-10-08 22:31:00,53.1,44.6,29.71,NW,315,0.0,0.9,73,0.00,,,0.00,WUHU216HW,2013-10-09 05:31:00,
2013-10-08 22:36:00,53.1,44.6,29.71,NW,315,0.0,0.4,73,0.00,,,0.00,WUHU216HW,2013-10-09 05:36:00,
2013-10-08 22:41:00,52.9,44.6,29.71,NW,315,0.4,0.4,73,0.00,,,0.00,WUHU216HW,2013-10-09 05:41:00,
2013-10-08 22:46:00,52.7,44.4,29.71,NW,315,0.0,0.4,73,0.00,,,0.00,WUHU216HW,2013-10-09 05:46:00,
2013-10-08 22:51:00,52.6,44.2,29.71,NW,315,0.0,0.0,73,0.00,,,0.00,WUHU216HW,2013-10-09 05:51:00,
2013-10-08 22:56:00,52.6,44.6,29.71,North,0,0.0,0.4,74,0.00,,,0.00,WUHU216HW,2013-10-09 05:56:00,
2013-10-08 23:01:00,52.4,44.4,29.71,North,0,0.0,0.4,74,0.00,,,0.00,WUHU216HW,2013-10-09 06:01:00,
2013-10-08 23:06:00,52.4,44.7,29.70,North,0,0.2,0.4,75,0.00,,,0.00,WUHU216HW,2013-10-09 06:06:00,
2013-10-08 23:11:00,52.2,44.6,29.70,NNE,23,0.4,0.7,75,0.00,,,0.00,WUHU216HW,2013-10-09 06:11:00,
2013-10-08 23:16:00,52.2,45.2,29.69,SE,135,0.4,1.1,77,0.00,,,0.00,WUHU216HW,2013-10-09 06:16:00,
2013-10-08 23:21:00,52.2,45.5,29.69,ESE,113,0.4,1.6,78,0.00,,,0.00,WUHU216HW,2013-10-09 06:21:00,
2013-10-08 23:26:00,52.2,45.5,29.70,North,0,0.7,2.7,78,0.00,,,0.00,WUHU216HW,2013-10-09 06:26:00,
2013-10-08 23:31:00,52.2,45.5,29.69,East,90,0.4,2.7,78,0.00,,,0.00,WUHU216HW,2013-10-09 06:31:00,
2013-10-08 23:36:00,52.0,45.4,29.70,North,0,0.4,2.5,78,0.00,,,0.00,WUHU216HW,2013-10-09 06:36:00,
2013-10-08 23:41:00,51.8,44.9,29.70,NW,315,0.4,2.5,77,0.00,,,0.00,WUHU216HW,2013-10-09 06:41:00,
2013-10-08 23:46:00,51.8,45.2,29.70,North,0,2.5,2.5,78,0.00,,,0.00,WUHU216HW,2013-10-09 06:46:00,
2013-10-08 23:51:00,51.7,45.0,29.70,NNE,23,1.1,2.5,78,0.00,,,0.00,WUHU216HW,2013-10-09 06:51:00,
2013-10-08 23:56:00,51.7,45.0,29.69,North,0,0.4,2.0,78,0.00,,,0.00,WUHU216HW,2013-10-09 06:56:00,